Weather History for Sexton Summit, OR

Change the Weather History Date:

Thursday, January 10, 2013

  Actual Average Record
Temperature  
Mean Temperature 26 °F -  
Max Temperature 28 °F 40 °F 57 °F (1999)
Min Temperature 24 °F 31 °F 21 °F (2007)
Degree Days  
Heating Degree Days 39    
Moisture  
Dew Point 24 °F    
Average Humidity 94    
Maximum Humidity 100    
Minimum Humidity 86    
Precipitation  
Precipitation 0.17 in - - ()
Sea Level Pressure  
Sea Level Pressure 30.01 in    
Wind  
Wind Speed 2 mph (NNW)    
Max Wind Speed 8 mph    
Max Gust Speed -    
Visibility 2 miles    
Events Fog , Snow    
Averages and records for this station are not official NWS values.
T = Trace of Precipitation, MM = Missing Value Source: NWS Daily Summary

Daily Weather History Graph

Daily Weather History Graph

Search for Another Location

Airport:

Trip Planner

Search our weather history database for the weather conditions in past years. The results will help you decide how hot, cold, wet, or windy it might be!

Date:

Astronomy

Jan. 10, 2013 Rise Set
Actual Time 7:42 AM PST 5:00 PM PST
Civil Twilight 7:11 AM PST 5:31 PM PST
Nautical Twilight 6:35 AM PST 6:06 PM PST
Astronomical Twilight 6:02 AM PST 6:40 PM PST
Moon 6:27 AM PST (1/10) 4:14 PM PST (1/10)
Length of Visible Light 10h 20m
Length of Day
9h 17m
Waning Crescent, 1% of the Moon is Illuminated
Jan 10
Waning Crescent
Jan 11
New
Jan 18
First Quarter
Jan 26
Full
Feb 3
Last Quarter

Hourly Weather History & Observations

Time (PST) Temp. Windchill Dew Point Humidity Pressure Visibility Wind Dir Wind Speed Gust Speed Precip Events Conditions
12:11 AM 24.8 °F - 24.8 °F 100% 29.90 in 1.8 mi Calm Calm - 0.00 in Snow Light Snow
12:17 AM 24.8 °F - 24.8 °F 100% 29.90 in 2.0 mi Calm Calm - 0.00 in Snow Light Snow
12:21 AM 24.8 °F - 24.8 °F 100% 29.90 in 1.2 mi Calm Calm - 0.00 in   Overcast
12:54 AM 24.8 °F - 24.8 °F 100% 29.90 in 0.8 mi Calm Calm - 0.00 in Snow Light Snow
12:56 AM 26.1 °F - 24.1 °F 92% 30.00 in 0.5 mi Calm Calm - 0.00 in Fog , Snow Snow
1:17 AM 26.6 °F - 24.8 °F 93% 29.90 in 0.2 mi Calm Calm - 0.00 in Fog , Snow Heavy Snow
1:34 AM 24.8 °F - 24.8 °F 100% 29.90 in 1.0 mi Calm Calm - 0.00 in Snow Light Snow
1:56 AM 26.1 °F - 24.1 °F 92% 30.01 in 1.5 mi Calm Calm - 0.00 in   Overcast
2:17 AM 24.8 °F 20.5 °F 23.0 °F 93% 29.92 in 0.8 mi Variable 3.5 mph - N/A Snow Light Snow
2:32 AM 24.8 °F - 23.0 °F 93% 29.92 in 1.2 mi Calm Calm - 0.00 in Snow Light Snow
2:56 AM 24.1 °F 19.7 °F 23.0 °F 96% 30.03 in 3.0 mi Variable 3.5 mph - 0.00 in   Overcast
3:33 AM 24.8 °F - 23.0 °F 93% 29.92 in 9.0 mi Calm Calm - N/A   Overcast
3:41 AM 24.8 °F 19.1 °F 23.0 °F 93% 29.92 in 2.5 mi NW 4.6 mph - 0.00 in   Overcast
3:54 AM 24.8 °F 20.5 °F 23.0 °F 93% 29.92 in 3.0 mi NNW 3.5 mph - 0.00 in   Overcast
3:56 AM 24.1 °F 19.7 °F 23.0 °F 96% 30.03 in 4.0 mi Variable 3.5 mph - 0.00 in Snow Light Snow
4:01 AM 24.8 °F 20.5 °F 23.0 °F 93% 29.92 in 1.8 mi NW 3.5 mph - N/A Snow Light Snow
4:04 AM 24.8 °F 20.5 °F 23.0 °F 93% 29.92 in 1.0 mi Variable 3.5 mph - 0.00 in Snow Light Snow
4:13 AM 24.8 °F 20.5 °F 23.0 °F 93% 29.92 in 0.5 mi NNW 3.5 mph - 0.00 in Fog , Snow Snow
4:37 AM 24.8 °F - 23.0 °F 93% 29.92 in 1.0 mi Calm Calm - 0.00 in Snow Light Snow
4:44 AM 24.8 °F - 23.0 °F 93% 29.92 in 0.8 mi Calm Calm - 0.00 in Snow Light Snow
4:50 AM 24.8 °F - 23.0 °F 93% 29.92 in 1.0 mi Calm Calm - 0.00 in Snow Light Snow
4:56 AM 24.1 °F 19.7 °F 23.0 °F 96% 30.04 in 1.0 mi Variable 3.5 mph - 0.00 in Snow Light Snow
5:35 AM 24.8 °F 20.5 °F 23.0 °F 93% 29.93 in 1.0 mi Variable 3.5 mph - 0.00 in Snow Light Snow
5:39 AM 24.8 °F 17.9 °F 23.0 °F 93% 29.94 in 1.5 mi NW 5.8 mph - 0.00 in Snow Light Snow
5:52 AM 24.8 °F 19.1 °F 23.0 °F 93% 29.94 in 0.8 mi Variable 4.6 mph - 0.00 in Snow Light Snow
5:56 AM 24.1 °F 18.2 °F 23.0 °F 96% 30.06 in 1.0 mi NNW 4.6 mph - 0.00 in Snow Light Snow
6:03 AM 24.8 °F 19.1 °F 23.0 °F 93% 29.94 in 2.0 mi Variable 4.6 mph - 0.00 in   Overcast
6:11 AM 24.8 °F 20.5 °F 23.0 °F 93% 29.94 in 3.0 mi Variable 3.5 mph - 0.00 in Snow Light Snow
6:35 AM 24.8 °F 19.1 °F 23.0 °F 93% 29.95 in 2.5 mi Variable 4.6 mph - 0.00 in Snow Light Snow
6:44 AM 24.8 °F - 23.0 °F 93% 29.95 in 1.2 mi Calm Calm - 0.00 in Snow Light Snow
6:56 AM 24.1 °F - 23.0 °F 96% 30.08 in 1.5 mi Calm Calm - 0.00 in Snow Light Snow
7:29 AM 24.8 °F 20.5 °F 21.2 °F 86% 29.97 in 9.0 mi Variable 3.5 mph - N/A   Overcast
7:39 AM 24.8 °F - 23.0 °F 93% 29.97 in 6.0 mi Calm Calm - N/A   Overcast
7:55 AM 24.1 °F - 23.0 °F 96% 30.09 in 1.2 mi Calm Calm - N/A   Overcast
8:04 AM 24.8 °F - 21.2 °F 86% 29.98 in 2.0 mi Calm Calm - N/A   Overcast
8:11 AM 24.8 °F - 21.2 °F 86% 29.98 in 1.5 mi Calm Calm - N/A   Overcast
8:24 AM 24.8 °F - 21.2 °F 86% 29.98 in 1.0 mi Calm Calm - N/A   Mist
8:46 AM 24.8 °F 20.5 °F 23.0 °F 93% 29.99 in 2.0 mi Variable 3.5 mph - N/A   Overcast
8:48 AM 24.8 °F 20.5 °F 23.0 °F 93% 29.99 in 1.2 mi Variable 3.5 mph - N/A   Overcast
8:56 AM 25.0 °F 20.7 °F 24.1 °F 96% 30.11 in 0.5 mi Variable 3.5 mph - N/A Fog Light Freezing Fog
9:19 AM 24.8 °F - 23.0 °F 93% 29.99 in 1.0 mi Calm Calm - N/A Snow Light Snow
9:30 AM 24.8 °F 20.5 °F 23.0 °F 93% 30.00 in 0.5 mi Variable 3.5 mph - 0.00 in Fog , Snow Snow
9:37 AM 24.8 °F - 23.0 °F 93% 30.00 in 0.2 mi Calm Calm - 0.00 in Fog , Snow Snow
9:56 AM 25.0 °F - 23.0 °F 92% 30.12 in 0.2 mi Calm Calm - 0.01 in Fog , Snow Heavy Snow
10:54 AM 24.8 °F 16.1 °F 23.0 °F 93% 30.00 in 0.2 mi NNW 8.1 mph - 0.01 in Fog , Snow Snow
10:56 AM 25.0 °F 17.1 °F 23.0 °F 92% 30.12 in 0.2 mi NNW 6.9 mph - 0.01 in Fog , Snow Heavy Snow
11:04 AM 24.8 °F 16.9 °F 23.0 °F 93% 30.00 in 0.2 mi NNW 6.9 mph - 0.03 in Fog , Snow Heavy Snow
11:50 AM 26.6 °F 22.6 °F 26.6 °F 100% 30.00 in 1.0 mi Variable 3.5 mph - 0.11 in Snow Light Snow
11:56 AM 27.0 °F 23.0 °F 25.0 °F 92% 30.11 in 1.8 mi Variable 3.5 mph - 0.11 in Snow Light Snow
12:12 PM 26.6 °F 21.2 °F 26.6 °F 100% 29.99 in 0.8 mi Variable 4.6 mph - 0.00 in Snow Light Snow
12:34 PM 26.6 °F 22.6 °F 26.6 °F 100% 29.98 in 0.2 mi Variable 3.5 mph - 0.00 in Fog , Snow Light Snow
12:41 PM 26.6 °F 22.6 °F 26.6 °F 100% 29.98 in 0.5 mi Variable 3.5 mph - 0.00 in Fog , Snow Light Snow
12:56 PM 27.0 °F 21.6 °F 26.1 °F 96% 30.09 in 0.5 mi Variable 4.6 mph - 0.00 in Fog , Snow Snow
1:09 PM 26.6 °F 22.6 °F 26.6 °F 100% 29.98 in 1.0 mi NNW 3.5 mph - N/A Snow Light Snow
1:16 PM 26.6 °F 21.2 °F 26.6 °F 100% 29.98 in 0.5 mi NNW 4.6 mph - 0.00 in Fog , Snow Light Snow
1:33 PM 26.6 °F 20.0 °F 26.6 °F 100% 29.98 in 0.2 mi NNW 5.8 mph - 0.00 in Fog , Snow Light Snow
1:56 PM 27.0 °F 19.5 °F 26.1 °F 96% 30.09 in 0.5 mi NNW 6.9 mph - 0.01 in Fog , Snow Light Snow
2:14 PM 26.6 °F 21.2 °F 26.6 °F 100% 29.99 in 0.2 mi Variable 4.6 mph - 0.00 in Fog , Snow Light Snow
2:22 PM 26.6 °F 22.6 °F 24.8 °F 93% 29.99 in 0.5 mi Variable 3.5 mph - 0.00 in Fog , Snow Light Snow
2:35 PM 26.6 °F 19.1 °F 24.8 °F 93% 29.99 in 0.2 mi NNW 6.9 mph - 0.00 in Fog , Snow Light Snow
2:56 PM 27.0 °F 23.0 °F 26.1 °F 96% 30.11 in 0.2 mi Variable 3.5 mph - 0.00 in Fog , Snow Light Snow
3:03 PM 26.6 °F 22.6 °F 26.6 °F 100% 30.00 in 0.5 mi NNW 3.5 mph - 0.00 in Fog , Snow Snow
3:11 PM 28.4 °F - 26.6 °F 93% 30.00 in 0.2 mi Calm Calm - 0.00 in Fog , Snow Light Snow
3:17 PM 26.6 °F - 26.6 °F 100% 30.00 in 1.0 mi Calm Calm - 0.00 in Snow Light Snow
3:29 PM 26.6 °F - 24.8 °F 93% 30.00 in 0.2 mi Calm Calm - 0.00 in Fog , Snow Snow
3:56 PM 27.0 °F 23.0 °F 25.0 °F 92% 30.12 in 0.2 mi Variable 3.5 mph - 0.02 in Fog , Snow Light Snow
4:05 PM 26.6 °F 22.6 °F 24.8 °F 93% 30.01 in 0.5 mi Variable 3.5 mph - 0.01 in Fog , Snow Light Snow
4:39 PM 26.6 °F - 24.8 °F 93% 30.01 in 1.0 mi Calm Calm - 0.01 in Snow Light Snow
4:56 PM 26.1 °F 21.9 °F 25.0 °F 96% 30.13 in 0.5 mi Variable 3.5 mph - 0.01 in Fog Light Freezing Fog
5:13 PM 26.6 °F 22.6 °F 24.8 °F 93% 30.01 in 1.5 mi Variable 3.5 mph - 0.00 in   Overcast
5:24 PM 26.6 °F - 24.8 °F 93% 30.01 in 1.2 mi Calm Calm - 0.00 in Snow Light Snow
5:33 PM 26.6 °F - 24.8 °F 93% 30.01 in 1.5 mi Calm Calm - 0.00 in Snow Light Snow
5:40 PM 26.6 °F 22.6 °F 24.8 °F 93% 30.01 in 0.8 mi Variable 3.5 mph - 0.00 in Snow Light Snow
5:56 PM 26.1 °F 21.9 °F 25.0 °F 96% 30.13 in 0.8 mi Variable 3.5 mph - 0.00 in Snow Light Snow
6:08 PM 26.6 °F 22.6 °F 24.8 °F 93% 30.01 in 0.8 mi Variable 3.5 mph - 0.00 in Snow Light Snow
6:23 PM 26.6 °F 22.6 °F 24.8 °F 93% 30.01 in 1.5 mi Variable 3.5 mph - 0.00 in   Overcast
6:33 PM 26.6 °F 21.2 °F 24.8 °F 93% 30.01 in 0.8 mi Variable 4.6 mph - 0.00 in Snow Light Snow
6:51 PM 26.6 °F 22.6 °F 24.8 °F 93% 30.01 in 1.5 mi Variable 3.5 mph - 0.00 in Snow Light Snow
6:56 PM 26.1 °F 21.9 °F 24.1 °F 92% 30.14 in 1.2 mi Variable 3.5 mph - 0.00 in   Overcast
7:15 PM 26.6 °F 21.2 °F 24.8 °F 93% 30.02 in 0.5 mi Variable 4.6 mph - 0.00 in Fog Light Freezing Fog
7:27 PM 26.6 °F - 24.8 °F 93% 30.03 in 1.2 mi Calm Calm - 0.00 in   Overcast
7:31 PM 26.6 °F 20.0 °F 24.8 °F 93% 30.03 in 2.0 mi Variable 5.8 mph - 0.00 in   Overcast
7:39 PM 26.6 °F 22.6 °F 24.8 °F 93% 30.02 in 4.0 mi Variable 3.5 mph - 0.00 in   Overcast
7:53 PM 24.8 °F 20.5 °F 23.0 °F 93% 30.02 in 1.8 mi Variable 3.5 mph - 0.00 in   Overcast
7:56 PM 25.0 °F - 23.0 °F 92% 30.14 in 1.0 mi Calm Calm - 0.00 in   Overcast
8:05 PM 24.8 °F - 24.8 °F 100% 30.02 in 2.5 mi Calm Calm - N/A   Overcast
8:12 PM 26.6 °F - 24.8 °F 93% 30.03 in 6.0 mi Calm Calm - N/A   Overcast
8:25 PM 26.6 °F - 24.8 °F 93% 30.03 in 2.5 mi Calm Calm - 0.00 in Snow Light Snow
8:39 PM 26.6 °F 22.6 °F 24.8 °F 93% 30.02 in 1.2 mi Variable 3.5 mph - 0.00 in Snow Light Snow
8:56 PM 26.1 °F - 24.1 °F 92% 30.14 in 1.5 mi Calm Calm - 0.00 in   Overcast
9:08 PM 26.6 °F - 24.8 °F 93% 30.03 in 3.0 mi Calm Calm - 0.00 in   Overcast
9:18 PM 26.6 °F - 24.8 °F 93% 30.04 in 1.8 mi Calm Calm - 0.00 in   Overcast
9:26 PM 24.8 °F - 23.0 °F 93% 30.04 in 1.0 mi Calm Calm - 0.00 in   Overcast
9:33 PM 24.8 °F - 23.0 °F 93% 30.04 in 2.0 mi Calm Calm - 0.00 in   Overcast
9:56 PM 25.0 °F - 23.0 °F 92% 30.16 in 6.0 mi Calm Calm - 0.00 in   Overcast
10:05 PM 24.8 °F 20.5 °F 23.0 °F 93% 30.04 in 1.8 mi Variable 3.5 mph - N/A   Overcast
10:11 PM 24.8 °F - 23.0 °F 93% 30.04 in 0.8 mi Calm Calm - N/A   Overcast
10:17 PM 24.8 °F - 23.0 °F 93% 30.04 in 0.8 mi Calm Calm - N/A   Overcast
10:40 PM 24.8 °F 20.5 °F 23.0 °F 93% 30.04 in 1.2 mi Variable 3.5 mph - N/A   Overcast
10:43 PM 24.8 °F - 23.0 °F 93% 30.04 in 2.0 mi Calm Calm - N/A   Overcast
10:49 PM 24.8 °F - 24.8 °F 100% 30.04 in 2.0 mi Calm Calm - N/A   Overcast
10:54 PM 24.8 °F - 24.8 °F 100% 30.04 in 1.8 mi Calm Calm - N/A   Overcast
10:56 PM 25.0 °F - 23.0 °F 92% 30.17 in 1.2 mi Calm Calm - N/A   Overcast
11:09 PM 24.8 °F - 23.0 °F 93% 30.04 in 2.0 mi Calm Calm - N/A   Overcast
11:37 PM 24.8 °F - 23.0 °F 93% 30.04 in 4.0 mi Calm Calm - N/A   Overcast
11:56 PM 25.0 °F - 23.0 °F 92% 30.16 in 9.0 mi Calm Calm - 0.00 in   Overcast